International Skating Union - Official Site

Essent ISU World Cup Chelyabinsk
November 18-20, 2011

Draw | Lap Times | Index | World Cup

Referee: Erik  ØSMUNDSET  (NOR)
Starter: Roman  DANILOV  (RUS)
StartTime: EndTime: Air Temp: Ice Temp: Humidity:
17:25 19:03 12℃ -5.7℃ 32%
Result 5000m Men Division A
Rankings as of Nov 20 2011 6:25PM
Rank: No.: Name: Nation: Time: Behind: Points:
1 167 Jorrit  BERGSMA NED NED 6:18.74200m - 19.46 - (19.4)
600m - 49.11 - (29.6)
1000m - 1:18.99 - (29.8)
1400m - 1:49.11 - (30.1)
1800m - 2:19.08 - (29.9)
2200m - 2:49.40 - (30.3)
2600m - 3:19.55 - (30.1)
3000m - 3:49.65 - (30.0)
3400m - 4:19.58 - (29.9)
3800m - 4:49.37 - (29.7)
4200m - 5:19.23 - (29.8)
4600m - 5:49.06 - (29.8)
5000m - 6:18.74 - (29.6)
100
2 174 Sven  KRAMER NED NED 6:20.60200m - 18.50 - (18.5)
600m - 48.22 - (29.7)
1000m - 1:18.93 - (30.7)
1400m - 1:49.63 - (30.6)
1800m - 2:20.15 - (30.5)
2200m - 2:50.66 - (30.5)
2600m - 3:20.26 - (29.5)
3000m - 3:49.84 - (29.5)
3400m - 4:19.64 - (29.7)
3800m - 4:49.65 - (30.0)
4200m - 5:19.77 - (30.1)
4600m - 5:50.03 - (30.2)
5000m - 6:20.60 - (30.5)
1,86 80
3 169 Bob  de JONG NED NED 6:21.96200m - 19.81 - (19.8)
600m - 49.96 - (30.1)
1000m - 1:20.54 - (30.5)
1400m - 1:50.90 - (30.3)
1800m - 2:21.07 - (30.1)
2200m - 2:51.36 - (30.2)
2600m - 3:21.55 - (30.1)
3000m - 3:51.60 - (30.0)
3400m - 4:21.83 - (30.2)
3800m - 4:51.77 - (29.9)
4200m - 5:22.07 - (30.3)
4600m - 5:52.06 - (29.9)
5000m - 6:21.96 - (29.8)
3,22 70
4 218 Jonathan  KUCK USA USA 6:23.77200m - 19.54 - (19.5)
600m - 50.16 - (30.6)
1000m - 1:20.81 - (30.6)
1400m - 1:51.33 - (30.5)
1800m - 2:21.53 - (30.2)
2200m - 2:51.98 - (30.4)
2600m - 3:21.98 - (30.0)
3000m - 3:52.16 - (30.1)
3400m - 4:22.20 - (30.0)
3800m - 4:52.39 - (30.1)
4200m - 5:22.51 - (30.1)
4600m - 5:52.89 - (30.3)
5000m - 6:23.77 - (30.8)
5,03 60
5 126 Alexis  CONTIN FRA FRA 6:23.97200m - 19.12 - (19.1)
600m - 48.88 - (29.7)
1000m - 1:18.90 - (30.0)
1400m - 1:49.36 - (30.4)
1800m - 2:19.69 - (30.3)
2200m - 2:49.90 - (30.2)
2600m - 3:20.31 - (30.4)
3000m - 3:50.75 - (30.4)
3400m - 4:21.27 - (30.5)
3800m - 4:51.70 - (30.4)
4200m - 5:22.19 - (30.4)
4600m - 5:52.93 - (30.7)
5000m - 6:23.97 - (31.0)
5,23 50
6 131 Moritz  GEISREITER GER GER 6:25.52200m - 19.37 - (19.3)
600m - 48.59 - (29.2)
1000m - 1:18.64 - (30.0)
1400m - 1:49.00 - (30.3)
1800m - 2:19.62 - (30.6)
2200m - 2:50.34 - (30.7)
2600m - 3:21.09 - (30.7)
3000m - 3:51.71 - (30.6)
3400m - 4:22.39 - (30.6)
3800m - 4:52.99 - (30.6)
4200m - 5:23.88 - (30.8)
4600m - 5:54.90 - (31.0)
5000m - 6:25.52 - (30.6)
6,78 45
7 189 Shane  DOBBIN NZL NZL 6:25.66200m - 19.31 - (19.3)
600m - 49.16 - (29.8)
1000m - 1:19.22 - (30.0)
1400m - 1:49.90 - (30.6)
1800m - 2:20.82 - (30.9)
2200m - 2:51.52 - (30.7)
2600m - 3:22.21 - (30.6)
3000m - 3:52.79 - (30.5)
3400m - 4:23.21 - (30.4)
3800m - 4:53.60 - (30.3)
4200m - 5:24.61 - (31.0)
4600m - 5:54.93 - (30.3)
5000m - 6:25.66 - (30.7)
6,92 40
8 168 Jan  BLOKHUIJSEN NED NED 6:26.39200m - 18.72 - (18.7)
600m - 49.20 - (30.4)
1000m - 1:20.11 - (30.9)
1400m - 1:50.50 - (30.3)
1800m - 2:20.65 - (30.1)
2200m - 2:51.08 - (30.4)
2600m - 3:21.58 - (30.5)
3000m - 3:52.03 - (30.4)
3400m - 4:22.67 - (30.6)
3800m - 4:53.20 - (30.5)
4200m - 5:23.96 - (30.7)
4600m - 5:54.86 - (30.9)
5000m - 6:26.39 - (31.5)
7,65 36
9 182 Håvard  BØKKO NOR NOR 6:27.60200m - 18.34 - (18.3)
600m - 48.19 - (29.8)
1000m - 1:18.64 - (30.4)
1400m - 1:48.78 - (30.1)
1800m - 2:19.31 - (30.5)
2200m - 2:49.62 - (30.3)
2600m - 3:20.30 - (30.6)
3000m - 3:51.28 - (30.9)
3400m - 4:22.32 - (31.0)
3800m - 4:53.34 - (31.0)
4200m - 5:24.77 - (31.4)
4600m - 5:56.19 - (31.4)
5000m - 6:27.60 - (31.4)
8,86 32
10 170 Douwe  de VRIES NED NED 6:27.65200m - 18.93 - (18.9)
600m - 48.52 - (29.5)
1000m - 1:18.33 - (29.8)
1400m - 1:48.15 - (29.8)
1800m - 2:18.15 - (30.0)
2200m - 2:48.48 - (30.3)
2600m - 3:19.18 - (30.7)
3000m - 3:50.08 - (30.9)
3400m - 4:21.16 - (31.0)
3800m - 4:52.62 - (31.4)
4200m - 5:24.08 - (31.4)
4600m - 5:55.78 - (31.6)
5000m - 6:27.65 - (31.8)
8,91 28
11 209 Ivan  SKOBREV RUS RUS 6:28.71200m - 19.44 - (19.4)
600m - 49.14 - (29.6)
1000m - 1:19.35 - (30.2)
1400m - 1:50.01 - (30.6)
1800m - 2:20.89 - (30.8)
2200m - 2:51.94 - (31.0)
2600m - 3:22.98 - (31.0)
3000m - 3:53.98 - (31.0)
3400m - 4:24.63 - (30.6)
3800m - 4:55.23 - (30.6)
4200m - 5:26.13 - (30.8)
4600m - 5:57.45 - (31.3)
5000m - 6:28.71 - (31.2)
9,97 24
12 130 Patrick  BECKERT GER GER 6:28.89200m - 19.64 - (19.6)
600m - 49.41 - (29.7)
1000m - 1:19.85 - (30.4)
1400m - 1:50.65 - (30.8)
1800m - 2:21.56 - (30.9)
2200m - 2:52.31 - (30.7)
2600m - 3:23.31 - (31.0)
3000m - 3:54.39 - (31.0)
3400m - 4:25.31 - (30.9)
3800m - 4:56.13 - (30.8)
4200m - 5:27.11 - (30.9)
4600m - 5:57.75 - (30.6)
5000m - 6:28.89 - (31.1)
10,15 21
13 187 Sverre  LUNDE PEDERSEN NOR NOR 6:30.15200m - 19.12 - (19.1)
600m - 50.25 - (31.1)
1000m - 1:21.48 - (31.2)
1400m - 1:52.21 - (30.7)
1800m - 2:22.90 - (30.6)
2200m - 2:53.81 - (30.9)
2600m - 3:24.68 - (30.8)
3000m - 3:55.43 - (30.7)
3400m - 4:26.34 - (30.9)
3800m - 4:57.17 - (30.8)
4200m - 5:27.81 - (30.6)
4600m - 5:58.71 - (30.8)
5000m - 6:30.15 - (31.4)
11,41 18
14 136 Marco  WEBER GER GER 6:30.26200m - 19.61 - (19.6)
600m - 49.75 - (30.1)
1000m - 1:20.47 - (30.7)
1400m - 1:51.27 - (30.7)
1800m - 2:22.13 - (30.8)
2200m - 2:52.97 - (30.8)
2600m - 3:23.82 - (30.8)
3000m - 3:54.82 - (31.0)
3400m - 4:25.88 - (31.0)
3800m - 4:57.04 - (31.1)
4200m - 5:28.52 - (31.4)
4600m - 5:59.70 - (31.1)
5000m - 6:30.26 - (30.5)
11,52 16
15 164 Seung-Hoon  LEE KOR KOR 6:32.43200m - 18.96 - (18.9)
600m - 48.75 - (29.7)
1000m - 1:19.17 - (30.4)
1400m - 1:49.87 - (30.7)
1800m - 2:20.67 - (30.7)
2200m - 2:51.40 - (30.7)
2600m - 3:22.59 - (31.1)
3000m - 3:53.68 - (31.0)
3400m - 4:24.92 - (31.2)
3800m - 4:56.30 - (31.3)
4200m - 5:28.17 - (31.8)
4600m - 6:00.16 - (31.9)
5000m - 6:32.43 - (32.2)
13,69 14
16 142 Hiroki  HIRAKO JPN JPN 6:33.60200m - 18.66 - (18.6)
600m - 48.35 - (29.6)
1000m - 1:18.72 - (30.3)
1400m - 1:49.49 - (30.7)
1800m - 2:20.36 - (30.8)
2200m - 2:51.25 - (30.8)
2600m - 3:22.20 - (30.9)
3000m - 3:53.33 - (31.1)
3400m - 4:24.87 - (31.5)
3800m - 4:56.57 - (31.6)
4200m - 5:28.60 - (32.0)
4600m - 6:00.97 - (32.3)
5000m - 6:33.60 - (32.6)
14,86 12
17 150 Dmitry  BABENKO KAZ KAZ 6:34.66200m - 18.63 - (18.6)
600m - 48.69 - (30.0)
1000m - 1:19.51 - (30.8)
1400m - 1:50.15 - (30.6)
1800m - 2:20.58 - (30.4)
2200m - 2:51.40 - (30.8)
2600m - 3:22.33 - (30.9)
3000m - 3:53.71 - (31.3)
3400m - 4:25.25 - (31.5)
3800m - 4:57.41 - (32.1)
4200m - 5:29.71 - (32.2)
4600m - 6:02.37 - (32.6)
5000m - 6:34.66 - (32.3)
15,92 10
18 183 Kristian Reistad  FREDRIKSEN NOR NOR 6:36.54200m - 19.67 - (19.6)
600m - 50.37 - (30.6)
1000m - 1:21.95 - (31.5)
1400m - 1:53.42 - (31.4)
1800m - 2:24.57 - (31.1)
2200m - 2:55.57 - (31.0)
2600m - 3:26.74 - (31.1)
3000m - 3:58.06 - (31.3)
3400m - 4:29.70 - (31.6)
3800m - 5:01.18 - (31.4)
4200m - 5:32.87 - (31.6)
4600m - 6:04.94 - (32.0)
5000m - 6:36.54 - (31.5)
17,80 8
19 102 Joshua  LOSE AUS AUS 6:38.21200m - 19.54 - (19.5)
600m - 49.84 - (30.3)
1000m - 1:20.54 - (30.7)
1400m - 1:51.33 - (30.7)
1800m - 2:22.08 - (30.7)
2200m - 2:53.08 - (31.0)
2600m - 3:24.25 - (31.1)
3000m - 3:55.78 - (31.5)
3400m - 4:27.73 - (31.9)
3800m - 5:00.24 - (32.5)
4200m - 5:33.01 - (32.7)
4600m - 6:05.33 - (32.3)
5000m - 6:38.21 - (32.8)
19,47 6
20 221 Patrick  MEEK USA USA 6:39.42200m - 20.08 - (20.0)
600m - 51.43 - (31.3)
1000m - 1:23.43 - (32.0)
1400m - 1:55.31 - (31.8)
1800m - 2:26.74 - (31.4)
2200m - 2:57.84 - (31.0)
2600m - 3:29.04 - (31.1)
3000m - 4:00.10 - (31.0)
3400m - 4:31.33 - (31.2)
3800m - 5:02.74 - (31.4)
4200m - 5:34.59 - (31.8)
4600m - 6:06.82 - (32.2)
5000m - 6:39.42 - (32.6)
20,68 5
21 212 Denis  YUSKOV RUS RUS 6:40.03200m - 19.74 - (19.7)
600m - 50.57 - (30.8)
1000m - 1:21.05 - (30.4)
1400m - 1:51.47 - (30.4)
1800m - 2:22.07 - (30.5)
2200m - 2:52.58 - (30.5)
2600m - 3:23.64 - (31.0)
3000m - 3:54.96 - (31.3)
3400m - 4:26.90 - (31.9)
3800m - 4:59.72 - (32.8)
4200m - 5:33.14 - (33.4)
4600m - 6:06.87 - (33.7)
5000m - 6:40.03 - (33.1)
21,29 4
22 112 Lucas  MAKOWSKY CAN CAN 6:47.68200m - 18.68 - (18.6)
600m - 48.73 - (30.0)
1000m - 1:19.39 - (30.6)
1400m - 1:50.11 - (30.7)
1800m - 2:21.22 - (31.1)
2200m - 2:53.03 - (31.8)
2600m - 3:25.42 - (32.3)
3000m - 3:58.13 - (32.7)
3400m - 4:31.38 - (33.2)
3800m - 5:05.04 - (33.6)
4200m - 5:39.05 - (34.0)
4600m - 6:13.19 - (34.1)
5000m - 6:47.68 - (34.4)
28,94 3
23 191 Slawomir  CHMURA POL POL 6:48.49200m - 19.61 - (19.6)
600m - 49.85 - (30.2)
1000m - 1:20.58 - (30.7)
1400m - 1:52.13 - (31.5)
1800m - 2:23.70 - (31.5)
2200m - 2:55.38 - (31.6)
2600m - 3:27.35 - (31.9)
3000m - 3:59.61 - (32.2)
3400m - 4:32.12 - (32.5)
3800m - 5:05.33 - (33.2)
4200m - 5:39.19 - (33.8)
4600m - 6:13.64 - (34.4)
5000m - 6:48.49 - (34.8)
29,75 2
24 138 Enrico  FABRIS ITA ITA DNS 0